EN

Hourly Weather Padarki

Today, 4 March, Thursday

Time Temperature Precipitation Wind Pressure Humidity
00:00 -2°C° 0 mm 6 mps 733 mmHg 88%
01:00 -2°C° 0 mm 6 mps 733 mmHg 87%
02:00 -2°C° 0 mm 6 mps 732 mmHg 86%
03:00 -3°C° 0 mm 6 mps 731 mmHg 88%
04:00 -3°C° 0 mm 6 mps 731 mmHg 91%
05:00 -2°C° 0 mm 5 mps 730 mmHg 94%
06:00 -2°C° 0.2 mm 5 mps 730 mmHg 94%
07:00 -2°C° 0.2 mm 4 mps 730 mmHg 94%
08:00 -2°C° 0.2 mm 4 mps 730 mmHg 94%
09:00 -1°C° 0.3 mm 3 mps 730 mmHg 90%
10:00 -1°C° 0.3 mm 3 mps 730 mmHg 86%
11:00 -1°C° 0.3 mm 3 mps 730 mmHg 83%
12:00 -1°C° 0.2 mm 3 mps 730 mmHg 79%
13:00 -1°C° 0.2 mm 3 mps 730 mmHg 74%
14:00 -1°C° 0.2 mm 3 mps 730 mmHg 70%
15:00 -2°C° 0 mm 2 mps 730 mmHg 72%
16:00 -2°C° 0 mm 2 mps 730 mmHg 73%
17:00 -3°C° 0 mm 2 mps 730 mmHg 75%
18:00 -4°C° 0 mm 2 mps 730 mmHg 78%
19:00 -5°C° 0 mm 2 mps 730 mmHg 81%
20:00 -5°C° 0 mm 2 mps 730 mmHg 85%
21:00 -6°C° 0 mm 2 mps 731 mmHg 86%
22:00 -4°C° 0 mm 1 mps 731 mmHg 87%
23:00 -4°C° 0 mm 1 mps 731 mmHg 88%

Tomorrow, 5 March, Friday

Time Temperature Precipitation Wind Pressure Humidity
00:00 -6°C° 0 mm 2 mps 731 mmHg 89%
01:00 -6°C° 0 mm 2 mps 732 mmHg 90%
02:00 -7°C° 0 mm 3 mps 732 mmHg 91%
03:00 -8°C° 0 mm 3 mps 732 mmHg 91%
04:00 -7°C° 0 mm 2 mps 733 mmHg 91%
05:00 -8°C° 0 mm 2 mps 733 mmHg 91%
06:00 -8°C° 0 mm 2 mps 733 mmHg 89%
07:00 -7°C° 0 mm 2 mps 734 mmHg 88%
08:00 -8°C° 0 mm 3 mps 734 mmHg 86%
09:00 -7°C° 0 mm 2 mps 734 mmHg 80%
10:00 -6°C° 0 mm 2 mps 735 mmHg 75%
11:00 -5°C° 0 mm 2 mps 735 mmHg 69%
12:00 -5°C° 0 mm 2 mps 735 mmHg 67%
13:00 -4°C° 0 mm 2 mps 736 mmHg 65%
14:00 -4°C° 0 mm 2 mps 736 mmHg 63%
15:00 -4°C° 0 mm 2 mps 736 mmHg 68%
16:00 -3°C° 0 mm 1 mps 736 mmHg 72%
17:00 -3°C° 0 mm 1 mps 736 mmHg 76%
18:00 -4°C° 0 mm 1 mps 737 mmHg 78%
19:00 -4°C° 0 mm 1 mps 737 mmHg 81%
20:00 -4°C° 0 mm 1 mps 738 mmHg 83%
21:00 -6°C° 0.1 mm 1 mps 738 mmHg 83%
22:00 -7°C° 0.1 mm 2 mps 738 mmHg 84%
23:00 -7°C° 0.1 mm 2 mps 738 mmHg 84%

Day after tomorrow, 6 March, Saturday

Time Temperature Precipitation Wind Pressure Humidity
00:00 -8°C° 0.1 mm 2 mps 739 mmHg 85%
01:00 -8°C° 0.1 mm 2 mps 739 mmHg 87%
02:00 -8°C° 0.1 mm 2 mps 740 mmHg 89%
03:00 -9°C° 0 mm 2 mps 740 mmHg 89%
04:00 -9°C° 0 mm 2 mps 740 mmHg 90%
05:00 -10°C° 0 mm 2 mps 740 mmHg 90%
06:00 -10°C° 0 mm 2 mps 740 mmHg 87%
07:00 -10°C° 0 mm 2 mps 741 mmHg 84%
08:00 -10°C° 0 mm 2 mps 741 mmHg 82%
09:00 -9°C° 0 mm 2 mps 741 mmHg 77%
10:00 -8°C° 0 mm 2 mps 741 mmHg 72%
11:00 -8°C° 0 mm 3 mps 741 mmHg 67%
12:00 -7°C° 0 mm 3 mps 741 mmHg 67%
13:00 -7°C° 0 mm 3 mps 741 mmHg 66%
14:00 -8°C° 0 mm 4 mps 741 mmHg 65%
15:00 -7°C° 0 mm 3 mps 740 mmHg 68%
16:00 -7°C° 0 mm 3 mps 740 mmHg 71%
17:00 -8°C° 0 mm 3 mps 739 mmHg 74%
18:00 -9°C° 0 mm 4 mps 739 mmHg 73%
19:00 -9°C° 0 mm 4 mps 738 mmHg 72%
20:00 -8°C° 0 mm 5 mps 737 mmHg 71%
21:00 -9°C° 0.2 mm 6 mps 736 mmHg 77%
22:00 -9°C° 0.2 mm 7 mps 735 mmHg 84%
23:00 -9°C° 0.2 mm 7 mps 734 mmHg 90%

7 March, Sunday

Time Temperature Precipitation Wind Pressure Humidity
00:00 -9°C° 0.3 mm 7 mps 733 mmHg 90%
01:00 -8°C° 0.3 mm 8 mps 731 mmHg 90%
02:00 -8°C° 0.3 mm 8 mps 730 mmHg 89%
03:00 -8°C° 0.5 mm 8 mps 729 mmHg 90%
04:00 -8°C° 0.5 mm 8 mps 727 mmHg 91%
05:00 -8°C° 0.5 mm 8 mps 726 mmHg 91%
06:00 -7°C° 0.6 mm 8 mps 726 mmHg 91%
07:00 -7°C° 0.6 mm 8 mps 725 mmHg 91%
08:00 -6°C° 0.6 mm 8 mps 724 mmHg 91%
09:00 -6°C° 0.6 mm 6 mps 724 mmHg 85%
10:00 -6°C° 0.6 mm 5 mps 724 mmHg 80%
11:00 -7°C° 0.6 mm 4 mps 724 mmHg 75%
12:00 -7°C° 0.2 mm 5 mps 724 mmHg 67%
13:00 -8°C° 0.2 mm 6 mps 724 mmHg 60%
14:00 -8°C° 0.2 mm 7 mps 724 mmHg 52%
15:00 -9°C° 0.1 mm 6 mps 724 mmHg 56%
16:00 -8°C° 0.1 mm 5 mps 725 mmHg 60%
17:00 -9°C° 0.1 mm 4 mps 725 mmHg 64%
18:00 -10°C° 0 mm 4 mps 725 mmHg 70%
19:00 -10°C° 0 mm 4 mps 725 mmHg 75%
20:00 -10°C° 0 mm 3 mps 725 mmHg 81%
21:00 -10°C° 0.2 mm 3 mps 725 mmHg 83%
22:00 -11°C° 0.2 mm 4 mps 725 mmHg 85%
23:00 -11°C° 0.2 mm 4 mps 726 mmHg 87%

8 March, Monday

Time Temperature Precipitation Wind Pressure Humidity
00:00 -11°C° 0.1 mm 4 mps 726 mmHg 86%
01:00 -13°C° 0.1 mm 5 mps 727 mmHg 86%
02:00 -13°C° 0.1 mm 5 mps 728 mmHg 85%
03:00 -14°C° 0 mm 5 mps 729 mmHg 86%
04:00 -15°C° 0 mm 4 mps 729 mmHg 87%
05:00 -15°C° 0 mm 4 mps 730 mmHg 88%
06:00 -15°C° 0 mm 4 mps 731 mmHg 87%
07:00 -14°C° 0 mm 4 mps 731 mmHg 86%
08:00 -14°C° 0 mm 4 mps 732 mmHg 85%
09:00 -14°C° 0 mm 4 mps 733 mmHg 81%
10:00 -12°C° 0 mm 4 mps 733 mmHg 78%
11:00 -12°C° 0 mm 4 mps 734 mmHg 75%
12:00 -11°C° 0 mm 4 mps 734 mmHg 75%
13:00 -11°C° 0 mm 4 mps 735 mmHg 74%
14:00 -12°C° 0 mm 5 mps 736 mmHg 74%
15:00 -12°C° 0 mm 4 mps 736 mmHg 77%
16:00 -12°C° 0 mm 4 mps 737 mmHg 80%
17:00 -14°C° 0 mm 4 mps 737 mmHg 83%
18:00 -14°C° 0 mm 4 mps 738 mmHg 84%
19:00 -15°C° 0 mm 4 mps 739 mmHg 85%
20:00 -16°C° 0 mm 4 mps 739 mmHg 86%
21:00 -16°C° 0 mm 4 mps 740 mmHg 87%
22:00 -16°C° 0 mm 3 mps 740 mmHg 89%
23:00 -17°C° 0 mm 3 mps 741 mmHg 90%

9 March, Tuesday

Time Temperature Precipitation Wind Pressure Humidity
00:00 -17°C° 0 mm 3 mps 742 mmHg 90%
01:00 -18°C° 0 mm 3 mps 742 mmHg 91%
02:00 -19°C° 0 mm 3 mps 742 mmHg 91%
03:00 -19°C° 0 mm 3 mps 743 mmHg 91%
04:00 -21°C° 0 mm 3 mps 744 mmHg 91%
05:00 -21°C° 0 mm 3 mps 744 mmHg 91%
06:00 -21°C° 0 mm 3 mps 745 mmHg 89%
07:00 -19°C° 0 mm 3 mps 745 mmHg 87%
08:00 -19°C° 0 mm 3 mps 746 mmHg 85%
09:00 -17°C° 0 mm 3 mps 746 mmHg 80%
10:00 -16°C° 0 mm 3 mps 747 mmHg 75%
11:00 -13°C° 0 mm 2 mps 747 mmHg 71%
12:00 -12°C° 0 mm 2 mps 747 mmHg 69%
13:00 -10°C° 0 mm 2 mps 747 mmHg 67%
14:00 -9°C° 0 mm 2 mps 748 mmHg 65%
15:00 -10°C° 0 mm 2 mps 748 mmHg 70%
16:00 -10°C° 0 mm 2 mps 748 mmHg 75%
17:00 -10°C° 0 mm 1 mps 748 mmHg 80%
18:00 -11°C° 0 mm 1 mps 748 mmHg 83%
19:00 -12°C° 0 mm 1 mps 748 mmHg 86%
20:00 -13°C° 0 mm 1 mps 749 mmHg 89%
21:00 -13°C° 0 mm 1 mps 749 mmHg 89%
22:00 -13°C° 0 mm 1 mps 749 mmHg 90%
23:00 -13°C° 0 mm 1 mps 749 mmHg 90%
Show more

We Need Your Consent

Meteoprog and our Service Providers may store and access personal data such as cookies, device identifiers or other similar technologies on your device and process such data to personalise content and ads, as well as provide social media features and to analyse the traffic.

  • Store and/or access information on your device

    Cookies, device identifiers or other information can be stored or accessed on your device for the purposes indicated above.

  • Personalised ads and content, ad and content measurement, audience insights, and products development

    Ads and content can be personalised based on a profile. More data can be added to better personalise ads and content. Ad and content performance can be measured. Insights about the audience who saw the ads and content can be derived. Such data can be used to develop or improve user’s experience, systems and software.

By clicking ‘I Agree’ you will allow the use of indicated cookies, device identifiers, web beacons or other similar technologies. Your settings can be changed in the browser on your device.

For certain purposes, legitimate interests may be relied on, rather than consent. You can read more about this in our Privacy and Cookie Policy.